User: anonymous   Login
Location: Palmerston North
(40.3500°S, 175.6170°E)
Time: 18:40:15
(UTC+13:00)
Language:

Cosmos 2278 Rocket - Orbit

View from above orbital plane
View from above orbital plane
View from above satellite
View from above satellite

Ground track
Ground track

The orbit data is extracted from the following two-line orbital elements,

1 23088U 94023B   19077.83736599 -.00000274  00000-0 -11779-3 0  9996
2 23088  71.0025  19.5134 0005073 235.0627 125.0020 14.14675640286005
Epoch (UTC): 18 March 2019 20:05:48
Eccentricity: 0.0005073
inclination: 71.0025°
perigee height: 840 km
apogee height: 847 km
right ascension of ascending node: 19.5134°
argument of perigee: 235.0627°
revolutions per day: 14.14675640
mean anomaly at epoch: 125.0020°
orbit number at epoch: 28600

The dashed part of the orbit path shows where the satellite is in the earth's shadow,  

DLR